Location: Ajisawe
(8.4333°N, 4.3833°E)
Time: 00:44:12
(UTC+00:00)

A-11 Canister half - Pass Details

Date: 24 April 2021
Orbit: 1514 x 1685 km, 47.2° (Epoch: 15 May)

Event Time Altitude Azimuth Distance (km) Brightness Sun altitude
Rises 01:19:23 0° 345° (NNW) 4,821 11.8 -57.5°
Reaches altitude 10° 01:24:56 10° 10° (N) 3,873 11.3 -56.5°
Maximum altitude 01:29:25 14° 37° (NE) 3,607 11.3 -55.6°
Drops below altitude 10° 01:33:56 10° 65° (ENE) 3,922 11.5 -54.7°
Sets 01:39:33 0° 89° (E) 4,928 12.1 -53.6°
